Location: Bottens
(46.6171°N, 6.6605°E)
Time: 20:29:56
(UTC+00:00)

ADEOS Rocket - Pass Details

Date: 20 June 2021
Orbit: 858 x 1307 km, 98.7° (Epoch: 23 July)

Event Time Altitude Azimuth Distance (km) Brightness Sun altitude
Rises 00:45:45 0° 139° (SE) 4,169 6.0 -18.1°
Reaches altitude 10° 00:48:38 10° 133° (SE) 3,156 5.4 -18.0°
Maximum altitude 00:55:19 43° 66° (ENE) 1,555 4.4 -17.6°
Drops below altitude 10° 01:01:25 10° 358° (N) 2,883 6.5 -17.3°
Sets 01:03:56 0° 352° (N) 3,777 7.1 -17.1°
